| time (UTC) | temp F | wind direction | speed MPH | gust MPH | rain 1hr in | rain 24hr in | rain mn in | humidity % | barometer mb |
| 20260509030008 | 72 | 167 | 0.0 | 0.0 | 0.00 | 0.00 | 0.00 | 62 | |
| 20260509024509 | 72 | 167 | 0.0 | 0.0 | 0.00 | 0.00 | 0.00 | 61 | |
| 20260509023016 | 72 | 167 | 0.0 | 0.0 | 0.00 | 0.00 | 0.00 | 61 | |
| 20260509021519 | 73 | 162 | 0.0 | 2.0 | 0.00 | 0.00 | 0.00 | 60 | |
| 20260509020018 | 73 | 162 | 0.0 | 2.0 | 0.00 | 0.00 | 0.00 | 60 | |
| 20260509014526 | 73 | 162 | 0.0 | 2.0 | 0.00 | 0.00 | 0.00 | 59 | |
| 20260509013038 | 73 | 161 | 0.0 | 0.0 | 0.00 | 0.00 | 0.00 | 58 | |
| 20260509011529 | 74 | 161 | 0.0 | 0.0 | 0.00 | 0.00 | 0.00 | 58 | |
| 20260509010031 | 74 | 218 | 0.0 | 2.0 | 0.00 | 0.00 | 0.00 | 57 | |
| 20260509004536 | 74 | 218 | 0.0 | 2.0 | 0.00 | 0.00 | 0.00 | 57 | |
| 20260509003038 | 74 | 228 | 0.0 | 2.0 | 0.00 | 0.00 | 0.00 | 57 | |
| 20260509001545 | 74 | 229 | 0.0 | 3.0 | 0.00 | 0.00 | 0.00 | 56 | |
| 20260509000047 | 75 | 216 | 0.0 | 3.0 | 0.00 | 0.00 | 0.00 | 55 | |
| 20260508234546 | 75 | 202 | 0.0 | 2.0 | 0.00 | 0.00 | 0.00 | 54 | |
| 20260508233052 | 76 | 185 | 0.0 | 3.0 | 0.00 | 0.00 | 0.00 | 54 | |
| 20260508231554 | 76 | 187 | 0.0 | 3.0 | 0.00 | 0.00 | 0.00 | 52 | |
| 20260508230056 | 77 | 191 | 1.0 | 4.0 | 0.00 | 0.00 | 0.00 | 51 | |
| 20260508224603 | 78 | 231 | 1.0 | 4.0 | 0.00 | 0.00 | 0.00 | 50 | |
| 20260508223053 | 78 | 229 | 2.0 | 5.0 | 0.00 | 0.00 | 0.00 | 50 | |
| 20260508221603 | 78 | 231 | 1.0 | 6.0 | 0.00 | 0.00 | 0.00 | 49 | |
| 20260508220105 | 78 | 239 | 1.0 | 5.0 | 0.00 | 0.00 | 0.00 | 48 | |
| 20260508214558 | 77 | 179 | 1.0 | 5.0 | 0.00 | 0.00 | 0.00 | 49 | |
| 20260508213116 | 77 | 167 | 1.0 | 6.0 | 0.00 | 0.00 | 0.00 | 48 | |
| 20260508211501 | 77 | 215 | 1.0 | 3.0 | 0.00 | 0.00 | 0.00 | 49 | |
| 20260508210001 | 76 | 226 | 2.0 | 4.0 | 0.00 | 0.00 | 0.00 | 49 | |
| 20260508204513 | 75 | 187 | 0.0 | 5.0 | 0.00 | 0.00 | 0.00 | 53 | |
| 20260508203006 | 73 | 229 | 0.0 | 2.0 | 0.00 | 0.00 | 0.00 | 52 | |
| 20260508201511 | 73 | 238 | 0.0 | 6.0 | 0.00 | 0.00 | 0.00 | 51 | |
| 20260508200012 | 74 | 231 | 0.0 | 2.0 | 0.00 | 0.00 | 0.00 | 51 | |
| 20260508194508 | 74 | 232 | 1.0 | 6.0 | 0.00 | 0.00 | 0.00 | 51 | |
| 20260508193013 | 74 | 248 | 0.0 | 3.0 | 0.00 | 0.00 | 0.00 | 52 | |
| 20260508191516 | 74 | 177 | 0.0 | 3.0 | 0.00 | 0.00 | 0.00 | 51 | |
| 20260508190032 | 75 | 226 | 1.0 | 4.0 | 0.00 | 0.00 | 0.00 | 50 | |
| 20260508184523 | 75 | 236 | 0.0 | 5.0 | 0.00 | 0.00 | 0.00 | 50 | |
| 20260508183023 | 75 | 218 | 0.0 | 4.0 | 0.00 | 0.00 | 0.00 | 51 | |
| 20260508181524 | 75 | 250 | 1.0 | 5.0 | 0.00 | 0.00 | 0.00 | 49 | |
| 20260508180029 | 74 | 252 | 1.0 | 4.0 | 0.00 | 0.00 | 0.00 | 49 | |
| 20260508174534 | 74 | 231 | 0.0 | 3.0 | 0.00 | 0.00 | 0.00 | 51 | |
| 20260508173020 | 73 | 227 | 0.0 | 5.0 | 0.00 | 0.00 | 0.00 | 51 | |
| 20260508171524 | 72 | 249 | 1.0 | 7.0 | 0.00 | 0.00 | 0.00 | 51 | |
| 20260508170023 | 72 | 275 | 1.0 | 5.0 | 0.00 | 0.00 | 0.00 | 54 | |
| 20260508164533 | 71 | 233 | 2.0 | 4.0 | 0.00 | 0.00 | 0.00 | 53 | |
| 20260508163028 | 70 | 185 | 0.0 | 2.0 | 0.00 | 0.00 | 0.00 | 53 | |
| 20260508161537 | 69 | 235 | 1.0 | 3.0 | 0.00 | 0.00 | 0.00 | 53 | |
| 20260508160030 | 68 | 169 | 1.0 | 6.0 | 0.00 | 0.00 | 0.00 | 54 | |
| 20260508154522 | 67 | 223 | 0.0 | 2.0 | 0.00 | 0.00 | 0.00 | 54 | |
| 20260508153033 | 67 | 225 | 1.0 | 3.0 | 0.00 | 0.00 | 0.00 | 56 | |
| 20260508151535 | 66 | 220 | 1.0 | 4.0 | 0.00 | 0.00 | 0.00 | 56 | |
| 20260508150027 | 65 | 189 | 0.0 | 2.0 | 0.00 | 0.00 | 0.00 | 58 | |
| 20260508144520 | 64 | 189 | 0.0 | 1.0 | 0.00 | 0.00 | 0.00 | 59 | |
| 20260508143024 | 64 | 187 | 0.0 | 2.0 | 0.00 | 0.00 | 0.00 | 60 | |
| 20260508141522 | 63 | 190 | 0.0 | 1.0 | 0.00 | 0.00 | 0.00 | 61 | |
| 20260508140024 | 62 | 186 | 0.0 | 3.0 | 0.00 | 0.00 | 0.00 | 62 | |
| 20260508134524 | 62 | 199 | 0.0 | 0.0 | 0.00 | 0.00 | 0.00 | 63 | |
| 20260508133042 | 62 | 199 | 0.0 | 0.0 | 0.00 | 0.00 | 0.00 | 64 | |
| 20260508131535 | 62 | 235 | 0.0 | 0.0 | 0.00 | 0.00 | 0.00 | 65 | |
| 20260508130034 | 62 | 235 | 0.0 | 0.0 | 0.00 | 0.00 | 0.00 | 65 | |
| 20260508124538 | 62 | 235 | 0.0 | 0.0 | 0.00 | 0.00 | 0.00 | 65 | |
| 20260508123043 | 62 | 235 | 0.0 | 0.0 | 0.00 | 0.00 | 0.00 | 65 | |
| 20260508121544 | 61 | 235 | 0.0 | 0.0 | 0.00 | 0.00 | 0.00 | 65 | |
| 20260508120051 | 61 | 235 | 0.0 | 2.0 | 0.00 | 0.00 | 0.00 | 64 | |
| 20260508114548 | 61 | 177 | 0.0 | 0.0 | 0.00 | 0.00 | 0.00 | 64 | |
| 20260508113055 | 61 | 177 | 0.0 | 0.0 | 0.00 | 0.00 | 0.00 | 64 | |
| 20260508111557 | 62 | 239 | 0.0 | 0.0 | 0.00 | 0.00 | 0.00 | 64 | |
| 20260508110059 | 62 | 239 | 0.0 | 0.0 | 0.00 | 0.00 | 0.00 | 64 | |
| 20260508104555 | 62 | 239 | 0.0 | 0.0 | 0.00 | 0.00 | 0.00 | 64 | |
| 20260508103054 | 62 | 239 | 0.0 | 1.0 | 0.00 | 0.00 | 0.00 | 63 | |
| 20260508101559 | 62 | 198 | 0.0 | 0.0 | 0.00 | 0.00 | 0.00 | 62 | |
| 20260508100103 | 62 | 198 | 0.0 | 0.0 | 0.00 | 0.00 | 0.00 | 61 | |
| 20260508094502 | 62 | 198 | 0.0 | 0.0 | 0.00 | 0.00 | 0.00 | 61 | |
| 20260508093007 | 62 | 198 | 0.0 | 0.0 | 0.00 | 0.00 | 0.00 | 61 | |
| 20260508091517 | 62 | 198 | 0.0 | 0.0 | 0.00 | 0.00 | 0.00 | 60 | |
| 20260508090013 | 62 | 198 | 0.0 | 0.0 | 0.00 | 0.00 | 0.00 | 60 | |
| 20260508084508 | 63 | 198 | 0.0 | 0.0 | 0.00 | 0.00 | 0.00 | 60 | |
| 20260508083023 | 62 | 198 | 0.0 | 0.0 | 0.00 | 0.00 | 0.00 | 60 | |
| 20260508081514 | 62 | 198 | 0.0 | 0.0 | 0.00 | 0.00 | 0.00 | 60 | |
| 20260508080010 | 62 | 198 | 0.0 | 0.0 | 0.00 | 0.00 | 0.00 | 60 | |
| 20260508074514 | 62 | 198 | 0.0 | 0.0 | 0.00 | 0.00 | 0.00 | 60 | |
| 20260508073016 | 62 | 198 | 0.0 | 0.0 | 0.00 | 0.00 | 0.00 | 60 | |
| 20260508071516 | 62 | 198 | 0.0 | 0.0 | 0.00 | 0.00 | 0.00 | 60 | |
| 20260508070016 | 62 | 198 | 0.0 | 0.0 | 0.00 | 0.00 | 0.00 | 60 | |
| 20260508064527 | 62 | 198 | 0.0 | 0.0 | 0.00 | 0.00 | 0.00 | 60 | |
| 20260508063018 | 62 | 198 | 0.0 | 0.0 | 0.00 | 0.00 | 0.00 | 60 | |
| 20260508061520 | 62 | 198 | 0.0 | 0.0 | 0.00 | 0.00 | 0.00 | 59 | |
| 20260508060027 | 62 | 198 | 0.0 | 0.0 | 0.00 | 0.00 | 0.00 | 59 | |
| 20260508054525 | 62 | 198 | 0.0 | 0.0 | 0.00 | 0.00 | 0.00 | 58 | |
| 20260508053039 | 62 | 198 | 0.0 | 0.0 | 0.00 | 0.00 | 0.00 | 58 | |
| 20260508051543 | 62 | 198 | 0.0 | 0.0 | 0.00 | 0.00 | 0.00 | 57 | |
| 20260508050030 | 62 | 198 | 0.0 | 0.0 | 0.00 | 0.00 | 0.00 | 56 | |
| 20260508044533 | 62 | 198 | 0.0 | 0.0 | 0.00 | 0.00 | 0.00 | 56 | |
| 20260508043033 | 62 | 198 | 0.0 | 0.0 | 0.00 | 0.00 | 0.00 | 55 | |
| 20260508041535 | 62 | 198 | 0.0 | 0.0 | 0.00 | 0.00 | 0.00 | 54 | |
| 20260508040035 | 63 | 198 | 0.0 | 0.0 | 0.00 | 0.00 | 0.00 | 53 | |
| 20260508034538 | 63 | 198 | 0.0 | 0.0 | 0.00 | 0.00 | 0.00 | 52 | |
| 20260508033048 | 63 | 198 | 0.0 | 0.0 | 0.00 | 0.00 | 0.00 | 51 | |
| 20260508031541 | 64 | 198 | 0.0 | 0.0 | 0.00 | 0.00 | 0.00 | 50 |